Flag for Germany Weather past 2 weeks in Rheinberg, North Rhine-Westphalia, Germany

Now
66 °F

Sunny.


Feels Like: 66 °F
Forecast: 57 / 64 °F
Wind: 5 mph from Southeast

Location: Duesseldorf

Current Time: Jul 7, 2015 at 7:19:28 AM

Latest Report: Jul 7, 2015 at 7:00 AM


Visibility: 31 mi

Pressure: 29.94 "Hg

Humidity: 60%

Dew point: 52 °F

Location of RheinbergLocation

Historic Weather in Rheinberg — Graph

°F

Rheinberg temperature yesterday

Maximum temperature yesterday: 77 °F (at 7:00 PM)
Minimum temperature yesterday: 59 °F (at 6:00 AM)
Average temperature yesterday: 68 °F

Past Weeks' High & Low Weather Summary

 TemperatureHumidityPressure
High98 °F (Jul 2, 4:00 PM)98% (Jun 22, 10:00 PM)30.25 "Hg (Jun 22, 10:00 PM)
Low49 °F (Jun 23, 4:00 AM)26% (Jul 1, 6:00 PM)29.72 "Hg (Jun 22, 8:00 PM)
Average70 °F64%30.08 "Hg
* Reported Jun 22 6:00 AM — Jul 7 6:00 AM, Rheinberg, Weather by CustomWeather, © 2015

Note: Actual official high and low records may vary slightly from our data, if they occured in-between our weather recording intervals... More about our weather records

Advertising

Rheinberg weather history for previous 24 hours

 ConditionsComfort  
Time TempWeatherWind HumidityBarometerVisibility
6:00 AM
Tue, Jul 7
61 °FSunny.1 mph75%29.96 "Hg31 mi
4:00 AM60 °FClear.1 mph79%29.99 "Hg31 mi
3:00 AM60 °FClear.1 mph79%30.01 "Hg31 mi
2:00 AM61 °FClear.1 mph76%30.02 "Hg31 mi
1:00 AM62 °FClear.1 mph73%30.04 "Hg37 mi
12:00 AM64 °FClear.2 mph71%30.05 "Hg37 mi
10:00 PM
Mon, Jul 6
69 °FClear.1 mph55%30.07 "Hg37 mi
9:00 PM75 °FSunny.1 mph45%30.07 "Hg34 mi
8:00 PM77 °FSunny.2 mph39%30.08 "Hg19 mi
7:00 PM77 °FPassing clouds.3 mph36%30.09 "Hg19 mi
6:00 PM77 °FPassing clouds.3 mph37%30.11 "Hg19 mi
4:00 PM76 °FPassing clouds.5 mph39%30.14 "Hg19 mi
3:00 PM74 °FPassing clouds.6 mph41%30.15 "Hg19 mi
2:00 PM74 °FPassing clouds.7 mph41%30.16 "Hg19 mi
1:00 PM73 °FPassing clouds.6 mph44%30.17 "Hg19 mi
12:00 PM69 °FPassing clouds.5 mph54%30.18 "Hg25 mi
10:00 AM65 °FScattered clouds.3 mph71%30.19 "Hg22 mi
9:00 AM62 °FPartly sunny.3 mph75%30.19 "Hg28 mi
8:00 AM60 °FPassing clouds.5 mph77%30.18 "Hg31 mi
7:00 AM60 °FPassing clouds.3 mph81%30.17 "Hg31 mi
Weather by CustomWeather, © 2015

See weather overviewHow to use our weather pages